FIN1M EFHK-EFHK

Flight info

Callsign FIN1M
Flight time 0h 47m
Altitude 3500
Route 3XTC/1FLS
Aircraft A321/M-SDE3FGHIRWY/LB1

Departure

Time 2026-05-06 15:55
Airport Helsinki Vantaa Airport (EFHK)

Arrival

Time 2026-05-06 16:42
Airport Helsinki Vantaa Airport (EFHK)
Time Latitude Longitude Altitude Speed Heading
2026-05-06 15:34 60.31899 24.96284 167 ft 0 kts 137°
2026-05-06 15:49 60.31896 24.96288 167 ft 2 kts 137°
2026-05-06 15:49 60.31872 24.96325 167 ft 6 kts 159°
2026-05-06 15:49 60.31843 24.96280 167 ft 6 kts 250°
2026-05-06 15:50 60.31847 24.96180 167 ft 9 kts 304°
2026-05-06 15:50 60.31893 24.96091 167 ft 10 kts 317°
2026-05-06 15:50 60.31946 24.95992 170 ft 10 kts 317°
2026-05-06 15:50 60.31997 24.95900 173 ft 12 kts 318°
2026-05-06 15:51 60.32071 24.95766 174 ft 17 kts 319°
2026-05-06 15:51 60.32161 24.95602 173 ft 18 kts 317°
2026-05-06 15:51 60.32252 24.95428 175 ft 18 kts 316°
2026-05-06 15:51 60.32349 24.95272 177 ft 18 kts 334°
2026-05-06 15:52 60.32470 24.95185 179 ft 19 kts 341°
2026-05-06 15:52 60.32599 24.95102 180 ft 20 kts 342°
2026-05-06 15:52 60.32741 24.95013 178 ft 23 kts 342°
2026-05-06 15:52 60.32883 24.94915 174 ft 20 kts 333°
2026-05-06 15:53 60.32987 24.94740 179 ft 19 kts 317°
2026-05-06 15:53 60.33080 24.94564 190 ft 17 kts 316°
2026-05-06 15:53 60.33121 24.94421 193 ft 11 kts 263°
2026-05-06 15:53 60.33110 24.94377 189 ft 0 kts 229°
2026-05-06 15:54 60.33093 24.94339 188 ft 14 kts 229°
2026-05-06 15:54 60.32887 24.93887 184 ft 82 kts 227°
2026-05-06 15:54 60.32338 24.92680 171 ft 148 kts 227°
2026-05-06 15:54 60.31579 24.91009 605 ft 166 kts 226°
2026-05-06 15:55 60.30794 24.89263 1365 ft 176 kts 229°
2026-05-06 15:55 60.29931 24.87374 1901 ft 190 kts 224°
2026-05-06 15:55 60.28806 24.85817 2412 ft 203 kts 208°
2026-05-06 15:55 60.27411 24.85001 2924 ft 216 kts 186°
2026-05-06 15:56 60.25879 24.85527 3413 ft 236 kts 157°
2026-05-06 15:56 60.24480 24.87572 3723 ft 267 kts 131°
2026-05-06 15:56 60.23518 24.90906 3998 ft 277 kts 109°
2026-05-06 15:56 60.23251 24.94643 3868 ft 266 kts 84°
2026-05-06 15:57 60.23752 24.98075 3820 ft 249 kts 59°
2026-05-06 15:57 60.24602 25.00963 3754 ft 237 kts 57°
2026-05-06 15:57 60.25490 25.03789 3736 ft 244 kts 53°
2026-05-06 15:57 60.26524 25.06528 3824 ft 247 kts 51°
2026-05-06 15:58 60.27569 25.09278 3944 ft 247 kts 49°
2026-05-06 15:58 60.28644 25.11981 3992 ft 247 kts 50°
2026-05-06 15:58 60.29713 25.14685 3979 ft 247 kts 50°
2026-05-06 15:58 60.30778 25.17395 3968 ft 247 kts 50°
2026-05-06 15:59 60.31843 25.20114 3948 ft 247 kts 50°
2026-05-06 15:59 60.32905 25.22841 3949 ft 247 kts 50°
2026-05-06 15:59 60.33934 25.25484 3937 ft 237 kts 50°
2026-05-06 15:59 60.34944 25.28070 3882 ft 234 kts 50°
2026-05-06 16:00 60.35950 25.30637 3824 ft 234 kts 50°
2026-05-06 16:00 60.36964 25.33211 3808 ft 234 kts 49°
2026-05-06 16:00 60.37977 25.35775 3806 ft 234 kts 50°
2026-05-06 16:00 60.38993 25.38337 3807 ft 233 kts 49°
2026-05-06 16:01 60.40011 25.40892 3811 ft 233 kts 49°
2026-05-06 16:01 60.41030 25.43441 3818 ft 233 kts 49°
2026-05-06 16:01 60.42067 25.45962 3807 ft 233 kts 43°
2026-05-06 16:01 60.43359 25.47790 3808 ft 229 kts 20°
2026-05-06 16:02 60.44901 25.48451 3823 ft 227 kts 357°
2026-05-06 16:02 60.46427 25.47819 3847 ft 224 kts 334°
2026-05-06 16:02 60.47732 25.46110 3834 ft 224 kts 321°
2026-05-06 16:02 60.48909 25.44067 3707 ft 220 kts 314°
2026-05-06 16:03 60.49976 25.41913 3613 ft 210 kts 314°
2026-05-06 16:03 60.50950 25.39795 3566 ft 203 kts 307°
2026-05-06 16:03 60.51599 25.37375 3451 ft 191 kts 282°
2026-05-06 16:03 60.51455 25.34855 3388 ft 180 kts 240°
2026-05-06 16:04 60.50472 25.33384 3423 ft 179 kts 208°
2026-05-06 16:04 60.49369 25.32315 3570 ft 178 kts 208°
2026-05-06 16:04 60.48315 25.31027 3655 ft 177 kts 216°
2026-05-06 16:04 60.47300 25.29622 3651 ft 176 kts 220°
2026-05-06 16:05 60.46407 25.27936 3693 ft 175 kts 228°
2026-05-06 16:05 60.45612 25.26070 3719 ft 175 kts 233°
2026-05-06 16:05 60.44854 25.24147 3729 ft 175 kts 234°
2026-05-06 16:05 60.44109 25.22267 3630 ft 167 kts 232°
2026-05-06 16:06 60.43339 25.20581 3458 ft 165 kts 228°
2026-05-06 16:06 60.42547 25.18923 3342 ft 163 kts 230°
2026-05-06 16:06 60.41789 25.17231 3193 ft 162 kts 231°
2026-05-06 16:06 60.41039 25.15519 2984 ft 162 kts 231°
2026-05-06 16:07 60.40294 25.13807 2764 ft 161 kts 231°
2026-05-06 16:07 60.39550 25.12123 2531 ft 161 kts 229°
2026-05-06 16:07 60.38781 25.10497 2274 ft 159 kts 229°
2026-05-06 16:07 60.38043 25.08887 2011 ft 154 kts 230°
2026-05-06 16:08 60.37339 25.07308 1656 ft 150 kts 230°
2026-05-06 16:08 60.36651 25.05798 1395 ft 142 kts 229°
2026-05-06 16:08 60.35997 25.04351 1116 ft 137 kts 229°
2026-05-06 16:08 60.35378 25.02959 831 ft 134 kts 227°
2026-05-06 16:09 60.34754 25.01598 664 ft 131 kts 225°
2026-05-06 16:09 60.34137 25.00246 486 ft 131 kts 226°
2026-05-06 16:09 60.33523 24.98891 326 ft 131 kts 225°
2026-05-06 16:09 60.32911 24.97556 178 ft 130 kts 225°
2026-05-06 16:10 60.32362 24.96357 178 ft 105 kts 227°
2026-05-06 16:10 60.31847 24.95222 174 ft 136 kts 227°
2026-05-06 16:10 60.31075 24.93475 477 ft 185 kts 227°
2026-05-06 16:10 60.30240 24.91444 1526 ft 189 kts 231°
2026-05-06 16:11 60.29419 24.89413 2417 ft 188 kts 233°
2026-05-06 16:11 60.28561 24.87355 3009 ft 201 kts 225°
2026-05-06 16:11 60.27298 24.86002 3640 ft 215 kts 195°
2026-05-06 16:11 60.25729 24.86041 3891 ft 233 kts 167°
2026-05-06 16:12 60.24360 24.87523 3895 ft 219 kts 139°
2026-05-06 16:12 60.23294 24.89699 3752 ft 225 kts 135°
2026-05-06 16:12 60.22183 24.91956 3940 ft 229 kts 136°
2026-05-06 16:12 60.21066 24.94295 4057 ft 235 kts 127°
2026-05-06 16:13 60.20430 24.97295 4026 ft 235 kts 97°
2026-05-06 16:13 60.20573 25.00525 3984 ft 233 kts 69°
2026-05-06 16:13 60.21364 25.03308 3966 ft 238 kts 49°
2026-05-06 16:13 60.22437 25.05932 3965 ft 246 kts 48°
2026-05-06 16:14 60.23534 25.08554 3857 ft 245 kts 49°
2026-05-06 16:14 60.24592 25.11247 3840 ft 245 kts 50°
2026-05-06 16:14 60.25626 25.13986 3831 ft 246 kts 51°
2026-05-06 16:14 60.26636 25.16765 3834 ft 246 kts 52°
2026-05-06 16:15 60.27619 25.19585 3838 ft 246 kts 53°
2026-05-06 16:15 60.28569 25.22406 3831 ft 247 kts 53°
2026-05-06 16:15 60.29563 25.25214 3829 ft 246 kts 52°
2026-05-06 16:15 60.30576 25.28012 3849 ft 246 kts 52°
2026-05-06 16:16 60.31587 25.30791 3865 ft 246 kts 51°
2026-05-06 16:16 60.32605 25.33573 3863 ft 246 kts 51°
2026-05-06 16:16 60.33628 25.36351 3862 ft 247 kts 51°
2026-05-06 16:16 60.34650 25.39128 3836 ft 246 kts 51°
2026-05-06 16:17 60.35653 25.41855 3824 ft 238 kts 51°
2026-05-06 16:17 60.36621 25.44490 3804 ft 236 kts 51°
2026-05-06 16:17 60.37608 25.47146 3774 ft 236 kts 47°
2026-05-06 16:17 60.38899 25.49070 3762 ft 230 kts 18°
2026-05-06 16:18 60.40453 25.49473 3775 ft 225 kts 348°
2026-05-06 16:18 60.41875 25.48292 3783 ft 222 kts 320°
2026-05-06 16:18 60.43071 25.46308 3808 ft 223 kts 320°
2026-05-06 16:18 60.44271 25.44345 3764 ft 222 kts 320°
2026-05-06 16:19 60.45478 25.42405 3715 ft 221 kts 320°
2026-05-06 16:19 60.46642 25.40361 3673 ft 220 kts 306°
2026-05-06 16:19 60.47312 25.37663 3670 ft 215 kts 290°
2026-05-06 16:19 60.47821 25.34920 3711 ft 198 kts 291°
2026-05-06 16:20 60.48277 25.32360 3753 ft 191 kts 280°
2026-05-06 16:20 60.48032 25.29796 3755 ft 191 kts 236°
2026-05-06 16:20 60.47080 25.27881 3645 ft 194 kts 223°
2026-05-06 16:20 60.46050 25.26128 3554 ft 193 kts 223°
2026-05-06 16:21 60.45039 25.24384 3495 ft 185 kts 223°
2026-05-06 16:21 60.44159 25.22705 3520 ft 169 kts 229°
2026-05-06 16:21 60.43389 25.20986 3618 ft 161 kts 232°
2026-05-06 16:21 60.42656 25.19272 3665 ft 161 kts 231°
2026-05-06 16:22 60.41940 25.17619 3561 ft 153 kts 232°
2026-05-06 16:22 60.41252 25.16016 3309 ft 150 kts 232°
2026-05-06 16:22 60.40561 25.14442 3087 ft 149 kts 231°
2026-05-06 16:22 60.39867 25.12887 2815 ft 148 kts 230°
2026-05-06 16:23 60.39166 25.11375 2486 ft 147 kts 230°
2026-05-06 16:23 60.38470 25.09870 2154 ft 146 kts 230°
2026-05-06 16:23 60.37756 25.08286 1858 ft 151 kts 229°
2026-05-06 16:23 60.37097 25.06795 1535 ft 139 kts 232°
2026-05-06 16:24 60.36460 25.05361 1224 ft 136 kts 229°
2026-05-06 16:24 60.35820 25.03970 1026 ft 134 kts 229°
2026-05-06 16:24 60.35204 25.02570 846 ft 133 kts 227°
2026-05-06 16:24 60.34582 25.01219 654 ft 131 kts 225°
2026-05-06 16:25 60.33969 24.99867 467 ft 131 kts 225°
2026-05-06 16:25 60.33352 24.98519 297 ft 130 kts 226°
2026-05-06 16:25 60.32746 24.97198 171 ft 120 kts 227°
2026-05-06 16:25 60.32235 24.96075 178 ft 106 kts 227°
2026-05-06 16:26 60.31563 24.94596 262 ft 173 kts 227°
2026-05-06 16:26 60.30681 24.92630 1029 ft 203 kts 228°
2026-05-06 16:26 60.29683 24.90371 1718 ft 224 kts 230°
2026-05-06 16:26 60.28684 24.88054 2282 ft 214 kts 231°
2026-05-06 16:27 60.27531 24.86184 2930 ft 218 kts 206°
2026-05-06 16:27 60.26035 24.85758 3572 ft 230 kts 175°
2026-05-06 16:27 60.24445 24.86940 3672 ft 249 kts 146°
2026-05-06 16:27 60.23186 24.89328 3768 ft 251 kts 135°
2026-05-06 16:28 60.21970 24.91864 3821 ft 252 kts 135°
2026-05-06 16:28 60.20756 24.94418 3888 ft 253 kts 135°
2026-05-06 16:28 60.19582 24.97034 3896 ft 252 kts 126°
2026-05-06 16:28 60.18953 25.00280 3862 ft 252 kts 92°
2026-05-06 16:29 60.19291 25.03635 3848 ft 250 kts 59°
2026-05-06 16:29 60.20341 25.06378 3808 ft 248 kts 47°
2026-05-06 16:29 60.21476 25.09001 3911 ft 249 kts 46°
2026-05-06 16:29 60.22617 25.11629 3975 ft 249 kts 46°
2026-05-06 16:30 60.23748 25.14284 3974 ft 250 kts 47°
2026-05-06 16:30 60.24488 25.16048 3968 ft 250 kts 47°
2026-05-06 16:30 60.25980 25.19638 3946 ft 250 kts 48°
2026-05-06 16:30 60.27087 25.22270 3946 ft 249 kts 47°
2026-05-06 16:31 60.28227 25.24894 3945 ft 249 kts 46°
2026-05-06 16:31 60.29354 25.27549 3945 ft 249 kts 48°
2026-05-06 16:31 60.30446 25.30272 3942 ft 249 kts 49°
2026-05-06 16:31 60.31514 25.33016 3936 ft 249 kts 50°
2026-05-06 16:32 60.32579 25.35776 3944 ft 249 kts 50°
2026-05-06 16:32 60.33639 25.38548 3947 ft 249 kts 50°
2026-05-06 16:32 60.34692 25.41329 3949 ft 249 kts 50°
2026-05-06 16:32 60.35740 25.44122 3957 ft 250 kts 50°
2026-05-06 16:33 60.36772 25.46896 3968 ft 250 kts 51°
2026-05-06 16:33 60.37889 25.49572 3985 ft 248 kts 34°
2026-05-06 16:33 60.39437 25.50755 3981 ft 233 kts 357°
2026-05-06 16:34 60.41949 25.48125 4015 ft 192 kts 317°
2026-05-06 16:34 60.42947 25.46401 4089 ft 185 kts 317°
2026-05-06 16:34 60.43907 25.44731 4099 ft 180 kts 316°
2026-05-06 16:34 60.44840 25.43088 4115 ft 180 kts 316°
2026-05-06 16:35 60.45790 25.41396 4122 ft 179 kts 315°
2026-05-06 16:35 60.46540 25.39472 4097 ft 177 kts 296°
2026-05-06 16:35 60.46926 25.37129 4092 ft 176 kts 281°
2026-05-06 16:35 60.47099 25.34674 4109 ft 176 kts 277°
2026-05-06 16:36 60.47217 25.32310 4086 ft 161 kts 271°
2026-05-06 16:36 60.47075 25.30126 4039 ft 155 kts 253°
2026-05-06 16:36 60.46580 25.28155 4056 ft 159 kts 241°
2026-05-06 16:36 60.45917 25.26360 3999 ft 159 kts 232°
2026-05-06 16:37 60.45173 25.24732 3952 ft 160 kts 230°
2026-05-06 16:37 60.44423 25.23135 3799 ft 151 kts 230°
2026-05-06 16:37 60.43711 25.21621 3660 ft 148 kts 231°
2026-05-06 16:37 60.43024 25.20062 3578 ft 148 kts 232°
2026-05-06 16:38 60.42350 25.18482 3446 ft 148 kts 232°
2026-05-06 16:38 60.41676 25.16919 3207 ft 147 kts 232°
2026-05-06 16:38 60.40987 25.15404 2992 ft 146 kts 231°
2026-05-06 16:38 60.40286 25.13914 2743 ft 146 kts 230°
2026-05-06 16:39 60.39611 25.12427 2514 ft 145 kts 232°
2026-05-06 16:39 60.38947 25.10915 2266 ft 143 kts 232°
2026-05-06 16:39 60.38286 25.09406 2035 ft 143 kts 232°
2026-05-06 16:39 60.37607 25.07926 1791 ft 144 kts 231°
2026-05-06 16:40 60.36941 25.06449 1608 ft 138 kts 232°
2026-05-06 16:40 60.36307 25.05048 1381 ft 133 kts 231°
2026-05-06 16:40 60.35687 25.03687 1110 ft 131 kts 230°
2026-05-06 16:40 60.35086 25.02330 891 ft 128 kts 229°
2026-05-06 16:41 60.34485 25.01012 646 ft 126 kts 226°
2026-05-06 16:41 60.33899 24.99721 464 ft 126 kts 227°
2026-05-06 16:41 60.33297 24.98400 269 ft 126 kts 226°
2026-05-06 16:41 60.32714 24.97118 172 ft 112 kts 227°
2026-05-06 16:42 60.32292 24.96196 177 ft 65 kts 227°
2026-05-06 16:42 60.32106 24.95805 175 ft 28 kts 217°
2026-05-06 16:42 60.31966 24.95659 173 ft 18 kts 201°
2026-05-06 16:42 60.31886 24.95603 171 ft 11 kts 198°
2026-05-06 16:43 60.31821 24.95615 170 ft 9 kts 148°
2026-05-06 16:43 60.31774 24.95618 170 ft 8 kts 216°
2026-05-06 16:43 60.31736 24.95534 171 ft 9 kts 228°
2026-05-06 16:43 60.31672 24.95389 170 ft 18 kts 228°
2026-05-06 16:44 60.31584 24.95197 170 ft 20 kts 226°
2026-05-06 16:44 60.31488 24.94988 168 ft 22 kts 226°
2026-05-06 16:44 60.31379 24.94750 163 ft 25 kts 228°
2026-05-06 16:44 60.31263 24.94490 159 ft 25 kts 229°
2026-05-06 16:45 60.31142 24.94224 158 ft 26 kts 227°
2026-05-06 16:45 60.31079 24.94084 158 ft 16 kts 228°
2026-05-06 16:45 60.30999 24.94020 160 ft 9 kts 141°
2026-05-06 16:45 60.30988 24.94120 162 ft 6 kts 86°
2026-05-06 16:46 60.30977 24.94197 162 ft 6 kts 119°
2026-05-06 16:46 60.30956 24.94266 163 ft 6 kts 117°
2026-05-06 16:46 60.30938 24.94336 164 ft 6 kts 117°
2026-05-06 16:46 60.30925 24.94384 164 ft 6 kts 120°
2026-05-06 16:47 60.30914 24.94425 164 ft 0 kts 120°